SCP
0 0 0 0 0 0 0 0 0 0 0 0 0 -0 -0 0 0 1 1 1 1 1 0 1 0 0 1 0 0 0 0 0 0 0 0 0 0 0 0 0 0 0 0 0
-0 0 0 0 -0 0 -0 0 0 0 0 -0 0 0 0 0 0 0 0 1 1 1 1 1 1 0 1 0 0 0 0 0 0 0 0 0 1 0 0 1 1 0 0 0
0 0 0 0 0 0 0 0 0 0 0 0 0 1 -0 1 1 1 1 1 1 0 0 0 1 1 1 1 1 0 0 0 0 0 0 0 0 0 0 0 0 0 0 0
0 0 0 0 0 0 0 0 1 0 0 0 0 0 1 1 1 1 1 1 0 0 0 0 0 0 0 1 1 2 1 1 0 0 0 1 1 0 0 1 0 0 -0 -0
0 0 0 0 0 0 0 1 1 1 1 0 0 1 1 1 1 0 0 0 0 0 1 1 0 0 0 1 2 1 1 1 1 1 0 1 1 1 1 1 1 0 0 0
0 0 0 0 0 0 0 1 1 1 1 1 2 1 1 0 1 0 0 0 0 0 0 0 0 1 1 1 2 2 2 1 1 1 1 0 1 1 2 1 1 1 1 1
0 0 0 0 0 0 0 1 1 1 1 1 1 1 1 0 0 0 0 0 0 0 0 0 0 0 1 1 1 1 1 1 1 2 1 1 1 1 2 2 2 1 1 1
0 0 1 0 0 1 1 1 0 0 0 0 0 0 1 0 0 0 0 0 0 0 0 0 0 0 0 0 1 1 1 1 1 1 1 1 1 1 2 2 2 1 1 1
0 0 0 0 0 0 0 0 0 0 0 0 0 0 0 0 0 0 0 0 0 0 0 0 0 0 0 0 0 0 0 0 0 1 1 1 1 1 1 1 1 2 2 2
0 0 0 0 0 0 0 0 0 0 0 0 0 0 0 0 0 0 0 0 0 0 0 0 0 0 -0 -0 -0 -0 0 0 0 0 0 1 0 0 -0 1 0 1 1 2
0 0 0 0 0 0 0 0 0 0 0 0 0 0 0 0 0 0 0 0 0 0 0 0 0 0 0 0 0 0 0 0 0 0 0 1 0 0 -0 -0 0 0 0 0
0 0 0 0 0 0 0 0 0 0 0 0 0 0 0 0 0 0 0 0 0 0 0 0 0 0 0 0 0 0 0 0 0 0 0 0 0 0 0 0 0 0 0 0
0 0 0 0 0 0 0 0 0 0 0 0 0 0 0 0 0 0 1 0 0 0 0 0 0 0 0 0 0 0 0 0 0 0 0 1 1 0 0 0 0 0 0 -0
0 0 0 0 0 0 0 0 0 0 0 0 0 0 0 0 0 0 0 0 0 0 0 0 -0 -0 0 0 0 0 0 0 0 0 0 0 0 1 0 0 0 0 0 0
0 0 0 0 0 0 0 0 0 0 0 0 0 0 0 0 0 0 0 0 0 0 0 0 0 0 0 0 0 0 0 0 0 0 0 0 0 1 0 0 0 0 0 0
0 0 0 0 0 0 0 0 0 0 0 0 0 0 0 0 0 0 0 0 0 0 0 0 0 0 0 0 0 0 0 0 0 0 0 0 0 1 1 0 0 0 0 0
0 0 0 0 0 0 0 0 0 0 0 0 0 0 0 0 0 0 0 0 0 0 0 0 0 0 0 0 0 0 0 0 0 0 0 0 0 1 1 0 0 0 0 0
0 0 0 0 0 0 0 0 0 0 0 0 0 0 0 0 0 0 0 0 0 0 0 0 0 0 0 0 0 0 0 0 0 0 0 0 0 0 0 0 0 0 0 0
0 0 0 0 0 0 0 0 0 0 0 0 0 0 0 0 0 0 0 0 0 0 0 0 0 0 0 0 0 0 0 0 0 0 0 0 0 0 1 0 0 0 0 0
0 0 0 0 0 0 0 0 0 0 0 0 0 0 0 0 0 0 0 0 0 0 0 0 0 0 0 0 0 0 0 0 0 0 0 0 0 0 1 1 0 0 0 0
0 0 0 0 0 0 0 0 0 0 0 0 0 0 0 0 0 0 0 0 0 0 0 0 0 0 0 0 0 0 0 0 0 0 0 -0 0 0 1 0 0 0 0 0
0 0 0 0 0 0 0 0 0 0 0 0 0 0 0 0 0 0 0 0 0 0 0 -0 0 0 0 0 0 0 0 0 0 0 -0 -0 0 0 0 1 0 0 0 0
0 0 0 0 0 0 0 0 0 0 0 0 0 0 0 0 0 0 0 0 -0 -0 0 0 0 0 0 0 0 0 0 0 0 0 0 0 0 0 0 0 0 0 0 0
0 0 0 0 0 0 0 0 0 0 0 0 0 0 0 0 0 0 0 0 0 0 0 -0 -0 0 0 -0 0 0 0 0 0 0 0 0 0 0 0 0 0 0 0 0
0 0 0 0 0 0 0 0 0 0 0 0 0 0 0 0 0 0 0 0 0 0 -0 0 -0 -0 -0 -0 0 0 0 -0 0 0 0 0 0 0 0 0 0 0 0 0
0 0 0 -0 -0 0 0 0 0 0 0 0 0 0 0 0 0 0 0 0 0 0 0 -0 0 0 0 0 -0 0 0 0 0 0 0 0 0 0 0 0 0 0 0 0
0 -0 -0 -0 -0 -0 -0 -0 0 0 0 0 0 0 0 0 0 0 0 0 0 0 0 0 0 0 0 0 0 0 0 0 0 0 0 0 0 0 0 0 0 0 0 0
Wind_Speed_500mb
16 16 17 21 22 25 18 16 9 14 16 29 27 22 34 27 18 35 38 31 28 23 20 13 9 11 22 22 29 34 36 39 36 35 37 32 33 31 32 33 43 43 41 51
14 19 24 25 27 32 28 15 13 26 14 9 14 11 9 20 33 37 34 30 26 22 13 18 13 15 17 21 22 19 29 39 38 37 41 42 37 40 38 35 36 38 44 42
10 14 20 15 16 18 11 16 16 16 9 12 10 39 49 42 44 40 32 24 22 25 20 12 7 6 10 25 22 21 17 24 39 42 40 42 42 44 45 45 39 35 35 46
7 11 10 16 16 18 19 25 22 27 15 22 33 41 30 32 32 27 22 18 23 19 22 17 19 17 14 4 21 25 27 26 26 35 46 44 43 46 48 50 50 48 49 48
3 5 15 19 13 12 11 22 24 20 15 28 42 46 34 29 29 22 14 14 10 18 22 11 14 16 16 12 10 16 26 31 36 36 38 41 43 44 43 47 49 55 53 48
2 3 6 9 13 28 19 7 27 32 26 30 20 6 2 11 13 8 11 12 11 14 21 12 21 24 19 14 12 4 13 25 33 39 44 45 43 46 47 44 45 41 46 46
8 10 6 12 29 23 4 2 27 36 35 34 10 12 9 4 6 6 11 11 14 15 20 21 17 20 15 14 18 26 25 25 26 34 41 45 45 52 51 46 42 39 38 40
5 3 2 12 8 10 4 22 14 20 17 15 16 14 5 8 12 14 16 18 21 29 32 31 29 29 25 21 24 29 32 29 32 35 34 43 52 53 57 49 50 48 47 45
9 8 15 33 24 15 5 15 25 26 16 8 9 15 26 33 33 32 27 24 27 31 33 33 33 36 42 43 43 40 35 36 39 32 33 40 47 52 53 51 60 60 55 47
11 13 17 30 33 31 23 16 16 19 27 24 24 26 28 31 28 22 24 28 29 30 32 34 40 48 52 55 55 54 50 43 38 43 37 42 43 44 55 49 63 51 41 40
5 18 19 27 24 24 25 22 15 19 27 22 30 31 21 32 38 42 44 45 49 52 51 48 42 44 50 55 59 62 60 59 53 44 39 40 41 41 39 29 27 66 37 11
2 7 10 12 20 22 24 23 25 22 22 21 32 37 38 42 43 43 49 52 50 46 47 48 49 50 53 55 59 63 65 60 57 49 36 35 34 37 29 22 23 16 23 28
6 14 14 14 9 11 17 24 27 29 35 35 31 34 38 44 46 46 40 32 38 42 42 43 45 48 50 48 46 49 54 56 55 55 43 39 41 41 30 26 24 26 30 55
18 19 10 12 16 21 24 25 28 32 42 40 42 40 27 29 36 41 47 50 51 57 66 69 76 83 77 72 65 63 64 60 56 57 51 43 38 38 38 33 21 29 48 62
12 13 8 13 17 25 28 33 37 41 47 51 31 35 42 51 62 71 68 57 56 62 69 83 82 73 65 63 58 66 66 63 65 54 50 42 40 45 40 41 28 23 29 47
19 15 13 13 23 27 30 34 42 47 34 40 45 52 60 67 65 65 64 70 77 81 87 84 73 72 69 71 70 63 61 58 60 60 52 54 43 51 45 36 31 32 32 31
4 8 14 18 21 29 33 37 37 40 47 53 62 62 65 66 62 62 67 83 77 74 71 74 71 67 66 61 55 62 61 61 62 53 55 60 62 45 58 47 42 36 42 36
5 11 16 22 30 38 44 37 37 47 54 53 57 64 60 58 65 79 84 71 69 68 64 64 65 66 61 61 60 56 53 55 48 53 48 47 56 51 45 38 43 44 45 43
17 24 30 32 39 35 33 35 45 51 49 52 52 63 71 76 74 70 70 72 66 64 67 64 64 60 53 48 47 52 52 50 52 58 62 44 47 64 59 54 47 48 45 49
16 26 30 22 24 30 40 47 44 52 59 65 65 68 74 71 65 68 65 65 62 61 57 55 50 50 50 51 52 53 52 50 62 59 53 50 52 56 61 58 45 37 45 45
26 22 29 36 43 45 42 44 50 52 53 65 67 63 61 62 52 49 53 52 53 43 40 39 41 47 49 50 44 42 47 47 46 49 48 45 52 39 56 51 40 39 44 46
30 33 33 37 35 40 41 45 54 59 59 59 52 47 51 49 48 46 40 41 42 41 43 45 42 36 31 36 36 37 40 42 37 39 54 47 44 40 52 50 40 45 45 53
32 25 25 32 43 46 49 42 44 49 41 40 37 39 45 45 40 45 47 44 45 47 38 38 39 31 31 33 30 32 32 38 39 34 22 27 25 31 35 46 37 49 49 55
16 20 29 37 36 35 39 41 46 38 34 37 26 35 40 40 37 35 35 40 38 39 38 38 42 38 33 32 17 21 22 24 30 33 17 11 19 29 34 40 38 43 48 44
21 22 28 34 35 37 37 44 40 33 36 33 30 31 31 29 30 32 31 32 31 39 44 38 33 30 22 13 9 15 14 10 17 42 34 44 33 31 37 38 50 50 50 49
27 24 28 28 34 32 37 36 33 37 40 36 34 31 29 27 25 23 23 21 26 32 37 37 36 30 30 15 13 14 15 7 14 20 21 19 31 41 44 49 47 47 41 24
19 33 29 34 38 35 36 38 40 40 38 34 31 31 28 26 24 20 19 18 19 23 31 34 33 27 24 25 4 16 17 16 23 22 16 10 14 50 54 46 46 49 46 34
Wind_Direction_500mb
302 326 322 299 285 286 298 289 303 253 168 165 194 208 199 239 339 55 56 62 59 88 124 173 217 241 236 225 221 235 215 222 221 232 243 232 230 234 232 237 225 228 233 237
334 328 326 325 317 307 289 291 17 86 51 223 150 104 106 22 85 69 50 42 35 40 74 111 206 222 232 234 236 229 234 227 219 229 234 237 229 231 232 240 236 234 233 236
284 304 330 318 288 281 51 49 80 66 134 108 64 36 324 73 66 64 60 42 19 14 8 31 85 97 238 260 268 263 257 238 226 228 233 238 236 233 239 242 239 239 243 239
254 340 323 248 15 19 61 54 45 112 139 145 138 140 102 84 82 70 62 39 31 17 351 28 16 357 315 309 251 260 260 257 247 236 238 244 240 239 237 240 240 239 238 248
109 252 281 307 26 35 68 42 35 58 71 128 127 99 56 79 78 72 62 32 13 11 38 45 19 3 339 6 264 241 256 260 256 250 244 245 245 247 243 242 244 243 242 243
281 249 272 9 42 20 356 53 25 50 62 55 97 75 310 36 50 45 47 18 360 338 349 3 19 12 7 10 354 276 260 261 260 261 256 253 249 246 245 246 246 240 235 233
249 234 229 340 356 338 349 168 57 62 48 51 64 122 151 116 180 209 280 292 315 329 332 334 331 344 354 351 316 320 305 286 274 256 263 266 253 251 244 241 242 239 233 228
328 356 307 19 42 73 21 67 57 74 53 31 13 8 2 310 252 244 266 273 284 298 297 300 308 311 317 319 315 314 320 317 292 276 272 265 260 252 245 237 235 230 224 224
131 181 69 90 112 119 83 43 30 21 358 327 332 329 321 321 319 321 307 298 295 288 287 294 300 301 303 307 305 302 303 312 310 306 287 279 278 274 259 242 244 227 220 216
40 16 26 58 62 57 49 41 15 350 333 335 341 331 314 303 307 322 323 317 315 309 304 296 293 294 297 300 304 306 298 292 303 304 299 299 292 291 285 266 246 223 226 229
290 41 25 40 38 20 1 348 327 312 327 322 313 307 332 327 321 317 313 310 306 302 298 295 295 290 291 293 296 300 301 300 289 291 301 315 299 302 309 312 270 346 344 275
149 61 126 26 2 352 339 333 328 311 307 317 318 314 314 311 305 301 298 296 291 290 290 291 293 293 294 295 296 293 294 297 297 286 279 291 290 295 311 309 265 289 252 268
39 20 22 5 1 351 350 328 316 310 322 317 317 314 312 303 304 306 294 290 292 288 285 284 282 286 288 287 282 285 288 292 290 295 286 274 283 282 287 292 286 229 211 201
23 0 341 356 345 331 309 314 317 313 325 317 313 306 303 302 298 302 308 309 309 300 300 297 296 300 295 287 277 277 280 280 280 283 288 257 264 270 264 262 271 244 225 220
342 334 341 323 324 317 320 326 316 318 312 307 302 305 308 309 308 307 306 306 302 300 297 302 297 294 286 287 284 277 283 275 272 273 282 255 258 264 251 239 235 244 246 242
292 305 307 334 328 320 324 323 320 318 324 322 315 311 309 313 310 304 302 299 301 297 295 293 293 286 281 281 281 278 274 276 280 260 270 257 255 253 232 223 241 267 257 254
7 339 334 328 318 318 321 321 316 315 317 312 311 311 309 307 305 296 293 305 302 300 294 289 286 295 286 282 280 277 275 272 281 257 256 265 252 267 231 228 233 240 255 261
354 345 337 323 319 316 318 312 311 308 311 310 305 310 308 302 301 300 303 308 306 301 294 292 291 297 290 281 278 281 275 270 275 264 267 264 251 249 225 224 230 231 236 249
313 320 319 317 312 314 316 314 312 314 308 309 308 305 303 304 303 300 301 305 306 302 299 302 300 298 289 284 277 275 268 261 263 264 258 268 264 250 238 235 234 226 222 234
333 317 321 325 326 317 312 314 314 307 306 308 310 312 312 314 308 298 299 298 301 306 313 305 298 288 282 277 276 273 266 269 263 262 262 272 266 242 231 236 240 227 222 231
342 338 326 327 324 320 316 312 308 303 306 305 310 315 324 319 318 307 305 305 317 322 315 313 311 295 282 276 276 263 259 266 264 265 271 267 248 247 235 232 222 214 224 227
323 325 322 317 319 313 307 303 302 307 308 307 313 320 323 328 333 326 320 320 323 317 314 314 315 314 297 283 275 262 261 257 266 274 261 267 245 249 236 220 215 237 233 230
323 326 318 313 315 310 312 323 326 325 322 325 326 334 327 325 330 339 338 335 324 322 316 303 301 298 284 302 274 270 263 258 265 278 288 262 260 217 232 230 242 239 233 224
335 326 318 318 329 341 339 337 337 337 328 328 335 322 326 326 325 329 331 320 325 333 336 311 304 302 298 306 253 257 257 270 267 255 258 297 267 261 241 238 222 221 201 206
348 336 339 352 355 347 340 336 341 340 337 340 338 337 332 334 335 331 324 322 329 335 338 336 338 330 294 272 238 261 269 339 239 232 287 247 254 226 218 210 192 184 185 185
11 9 6 359 1 354 353 357 359 353 354 354 351 348 343 348 343 338 336 333 335 336 337 348 354 350 353 302 252 258 254 199 181 205 226 228 256 230 192 187 187 188 179 184
44 39 27 26 22 18 23 28 27 16 7 6 4 3 7 11 11 12 6 359 355 356 353 3 10 7 4 7 76 206 237 223 204 218 241 179 176 184 181 178 182 178 177 166
Wind_Speed_850mb
16 16 17 21 22 25 18 16 9 14 16 29 27 22 34 27 18 35 38 31 28 23 20 13 9 11 22 22 29 34 36 39 36 35 37 32 33 31 32 33 43 43 41 51
14 19 24 25 27 32 28 15 13 26 14 9 14 11 9 20 33 37 34 30 26 22 13 18 13 15 17 21 22 19 29 39 38 37 41 42 37 40 38 35 36 38 44 42
10 14 20 15 16 18 11 16 16 16 9 12 10 39 49 42 44 40 32 24 22 25 20 12 7 6 10 25 22 21 17 24 39 42 40 42 42 44 45 45 39 35 35 46
7 11 10 16 16 18 19 25 22 27 15 22 33 41 30 32 32 27 22 18 23 19 22 17 19 17 14 4 21 25 27 26 26 35 46 44 43 46 48 50 50 48 49 48
3 5 15 19 13 12 11 22 24 20 15 28 42 46 34 29 29 22 14 14 10 18 22 11 14 16 16 12 10 16 26 31 36 36 38 41 43 44 43 47 49 55 53 48
2 3 6 9 13 28 19 7 27 32 26 30 20 6 2 11 13 8 11 12 11 14 21 12 21 24 19 14 12 4 13 25 33 39 44 45 43 46 47 44 45 41 46 46
8 10 6 12 29 23 4 2 27 36 35 34 10 12 9 4 6 6 11 11 14 15 20 21 17 20 15 14 18 26 25 25 26 34 41 45 45 52 51 46 42 39 38 40
5 3 2 12 8 10 4 22 14 20 17 15 16 14 5 8 12 14 16 18 21 29 32 31 29 29 25 21 24 29 32 29 32 35 34 43 52 53 57 49 50 48 47 45
9 8 15 33 24 15 5 15 25 26 16 8 9 15 26 33 33 32 27 24 27 31 33 33 33 36 42 43 43 40 35 36 39 32 33 40 47 52 53 51 60 60 55 47
11 13 17 30 33 31 23 16 16 19 27 24 24 26 28 31 28 22 24 28 29 30 32 34 40 48 52 55 55 54 50 43 38 43 37 42 43 44 55 49 63 51 41 40
5 18 19 27 24 24 25 22 15 19 27 22 30 31 21 32 38 42 44 45 49 52 51 48 42 44 50 55 59 62 60 59 53 44 39 40 41 41 39 29 27 66 37 11
2 7 10 12 20 22 24 23 25 22 22 21 32 37 38 42 43 43 49 52 50 46 47 48 49 50 53 55 59 63 65 60 57 49 36 35 34 37 29 22 23 16 23 28
6 14 14 14 9 11 17 24 27 29 35 35 31 34 38 44 46 46 40 32 38 42 42 43 45 48 50 48 46 49 54 56 55 55 43 39 41 41 30 26 24 26 30 55
18 19 10 12 16 21 24 25 28 32 42 40 42 40 27 29 36 41 47 50 51 57 66 69 76 83 77 72 65 63 64 60 56 57 51 43 38 38 38 33 21 29 48 62
12 13 8 13 17 25 28 33 37 41 47 51 31 35 42 51 62 71 68 57 56 62 69 83 82 73 65 63 58 66 66 63 65 54 50 42 40 45 40 41 28 23 29 47
19 15 13 13 23 27 30 34 42 47 34 40 45 52 60 67 65 65 64 70 77 81 87 84 73 72 69 71 70 63 61 58 60 60 52 54 43 51 45 36 31 32 32 31
4 8 14 18 21 29 33 37 37 40 47 53 62 62 65 66 62 62 67 83 77 74 71 74 71 67 66 61 55 62 61 61 62 53 55 60 62 45 58 47 42 36 42 36
5 11 16 22 30 38 44 37 37 47 54 53 57 64 60 58 65 79 84 71 69 68 64 64 65 66 61 61 60 56 53 55 48 53 48 47 56 51 45 38 43 44 45 43
17 24 30 32 39 35 33 35 45 51 49 52 52 63 71 76 74 70 70 72 66 64 67 64 64 60 53 48 47 52 52 50 52 58 62 44 47 64 59 54 47 48 45 49
16 26 30 22 24 30 40 47 44 52 59 65 65 68 74 71 65 68 65 65 62 61 57 55 50 50 50 51 52 53 52 50 62 59 53 50 52 56 61 58 45 37 45 45
26 22 29 36 43 45 42 44 50 52 53 65 67 63 61 62 52 49 53 52 53 43 40 39 41 47 49 50 44 42 47 47 46 49 48 45 52 39 56 51 40 39 44 46
30 33 33 37 35 40 41 45 54 59 59 59 52 47 51 49 48 46 40 41 42 41 43 45 42 36 31 36 36 37 40 42 37 39 54 47 44 40 52 50 40 45 45 53
32 25 25 32 43 46 49 42 44 49 41 40 37 39 45 45 40 45 47 44 45 47 38 38 39 31 31 33 30 32 32 38 39 34 22 27 25 31 35 46 37 49 49 55
16 20 29 37 36 35 39 41 46 38 34 37 26 35 40 40 37 35 35 40 38 39 38 38 42 38 33 32 17 21 22 24 30 33 17 11 19 29 34 40 38 43 48 44
21 22 28 34 35 37 37 44 40 33 36 33 30 31 31 29 30 32 31 32 31 39 44 38 33 30 22 13 9 15 14 10 17 42 34 44 33 31 37 38 50 50 50 49
27 24 28 28 34 32 37 36 33 37 40 36 34 31 29 27 25 23 23 21 26 32 37 37 36 30 30 15 13 14 15 7 14 20 21 19 31 41 44 49 47 47 41 24
19 33 29 34 38 35 36 38 40 40 38 34 31 31 28 26 24 20 19 18 19 23 31 34 33 27 24 25 4 16 17 16 23 22 16 10 14 50 54 46 46 49 46 34
Wind_Direction_850mb
302 326 322 299 285 286 298 289 303 253 168 165 194 208 199 239 339 55 56 62 59 88 124 173 217 241 236 225 221 235 215 222 221 232 243 232 230 234 232 237 225 228 233 237
334 328 326 325 317 307 289 291 17 86 51 223 150 104 106 22 85 69 50 42 35 40 74 111 206 222 232 234 236 229 234 227 219 229 234 237 229 231 232 240 236 234 233 236
284 304 330 318 288 281 51 49 80 66 134 108 64 36 324 73 66 64 60 42 19 14 8 31 85 97 238 260 268 263 257 238 226 228 233 238 236 233 239 242 239 239 243 239
254 340 323 248 15 19 61 54 45 112 139 145 138 140 102 84 82 70 62 39 31 17 351 28 16 357 315 309 251 260 260 257 247 236 238 244 240 239 237 240 240 239 238 248
109 252 281 307 26 35 68 42 35 58 71 128 127 99 56 79 78 72 62 32 13 11 38 45 19 3 339 6 264 241 256 260 256 250 244 245 245 247 243 242 244 243 242 243
281 249 272 9 42 20 356 53 25 50 62 55 97 75 310 36 50 45 47 18 360 338 349 3 19 12 7 10 354 276 260 261 260 261 256 253 249 246 245 246 246 240 235 233
249 234 229 340 356 338 349 168 57 62 48 51 64 122 151 116 180 209 280 292 315 329 332 334 331 344 354 351 316 320 305 286 274 256 263 266 253 251 244 241 242 239 233 228
328 356 307 19 42 73 21 67 57 74 53 31 13 8 2 310 252 244 266 273 284 298 297 300 308 311 317 319 315 314 320 317 292 276 272 265 260 252 245 237 235 230 224 224
131 181 69 90 112 119 83 43 30 21 358 327 332 329 321 321 319 321 307 298 295 288 287 294 300 301 303 307 305 302 303 312 310 306 287 279 278 274 259 242 244 227 220 216
40 16 26 58 62 57 49 41 15 350 333 335 341 331 314 303 307 322 323 317 315 309 304 296 293 294 297 300 304 306 298 292 303 304 299 299 292 291 285 266 246 223 226 229
290 41 25 40 38 20 1 348 327 312 327 322 313 307 332 327 321 317 313 310 306 302 298 295 295 290 291 293 296 300 301 300 289 291 301 315 299 302 309 312 270 346 344 275
149 61 126 26 2 352 339 333 328 311 307 317 318 314 314 311 305 301 298 296 291 290 290 291 293 293 294 295 296 293 294 297 297 286 279 291 290 295 311 309 265 289 252 268
39 20 22 5 1 351 350 328 316 310 322 317 317 314 312 303 304 306 294 290 292 288 285 284 282 286 288 287 282 285 288 292 290 295 286 274 283 282 287 292 286 229 211 201
23 0 341 356 345 331 309 314 317 313 325 317 313 306 303 302 298 302 308 309 309 300 300 297 296 300 295 287 277 277 280 280 280 283 288 257 264 270 264 262 271 244 225 220
342 334 341 323 324 317 320 326 316 318 312 307 302 305 308 309 308 307 306 306 302 300 297 302 297 294 286 287 284 277 283 275 272 273 282 255 258 264 251 239 235 244 246 242
292 305 307 334 328 320 324 323 320 318 324 322 315 311 309 313 310 304 302 299 301 297 295 293 293 286 281 281 281 278 274 276 280 260 270 257 255 253 232 223 241 267 257 254
7 339 334 328 318 318 321 321 316 315 317 312 311 311 309 307 305 296 293 305 302 300 294 289 286 295 286 282 280 277 275 272 281 257 256 265 252 267 231 228 233 240 255 261
354 345 337 323 319 316 318 312 311 308 311 310 305 310 308 302 301 300 303 308 306 301 294 292 291 297 290 281 278 281 275 270 275 264 267 264 251 249 225 224 230 231 236 249
313 320 319 317 312 314 316 314 312 314 308 309 308 305 303 304 303 300 301 305 306 302 299 302 300 298 289 284 277 275 268 261 263 264 258 268 264 250 238 235 234 226 222 234
333 317 321 325 326 317 312 314 314 307 306 308 310 312 312 314 308 298 299 298 301 306 313 305 298 288 282 277 276 273 266 269 263 262 262 272 266 242 231 236 240 227 222 231
342 338 326 327 324 320 316 312 308 303 306 305 310 315 324 319 318 307 305 305 317 322 315 313 311 295 282 276 276 263 259 266 264 265 271 267 248 247 235 232 222 214 224 227
323 325 322 317 319 313 307 303 302 307 308 307 313 320 323 328 333 326 320 320 323 317 314 314 315 314 297 283 275 262 261 257 266 274 261 267 245 249 236 220 215 237 233 230
323 326 318 313 315 310 312 323 326 325 322 325 326 334 327 325 330 339 338 335 324 322 316 303 301 298 284 302 274 270 263 258 265 278 288 262 260 217 232 230 242 239 233 224
335 326 318 318 329 341 339 337 337 337 328 328 335 322 326 326 325 329 331 320 325 333 336 311 304 302 298 306 253 257 257 270 267 255 258 297 267 261 241 238 222 221 201 206
348 336 339 352 355 347 340 336 341 340 337 340 338 337 332 334 335 331 324 322 329 335 338 336 338 330 294 272 238 261 269 339 239 232 287 247 254 226 218 210 192 184 185 185
11 9 6 359 1 354 353 357 359 353 354 354 351 348 343 348 343 338 336 333 335 336 337 348 354 350 353 302 252 258 254 199 181 205 226 228 256 230 192 187 187 188 179 184
44 39 27 26 22 18 23 28 27 16 7 6 4 3 7 11 11 12 6 359 355 356 353 3 10 7 4 7 76 206 237 223 204 218 241 179 176 184 181 178 182 178 177 166